EW2244 Weather Reports


Display with metric or nautical units.
time (UTC)temp
F
wind
direction
speed
MPH
gust
MPH
rain 1hr
in
rain 24hr
in
rain mn
in
humidity
%
barometer
mb
20260906041134 71 355 1.0 4.0 0.00 0.00 0.00 58 1022.1
20260906040121 71 218 0.0 2.0 0.00 0.00 0.00 59 1022.0
20260906035145 71 218 1.0 5.0 0.00 0.00 0.00 60 1021.8
20260906034146 70 221 0.0 3.0 0.00 0.00 0.00 61 1021.8
20260906033131 71 223 0.0 3.0 0.00 0.00 0.00 62 1021.7
20260906032133 72 223 0.0 2.0 0.00 0.00 0.00 59 1021.8
20260906031120 71 223 0.0 4.0 0.00 0.00 0.00 60 1021.7
20260906030124 70 252 0.0 3.0 0.00 0.00 0.00 61 1021.6
20260906025146 71 252 0.0 1.0 0.00 0.00 0.00 62 1021.5
20260906024127 71 252 0.0 1.0 0.00 0.00 0.00 61 1021.4
20260906023135 71 252 1.0 3.0 0.00 0.00 0.00 63 1021.4
20260906022137 71 252 0.0 2.0 0.00 0.00 0.00 62 1021.4
20260906021121 71 252 1.0 5.0 0.00 0.00 0.00 62 1021.4
20260906020124 72 295 1.0 3.0 0.00 0.00 0.00 59 1021.3
20260906015130 72 296 1.0 3.0 0.00 0.00 0.00 59 1021.4
20260906014134 73 350 2.0 3.0 0.00 0.00 0.00 56 1021.3
20260906013118 74 19 1.0 3.0 0.00 0.00 0.00 53 1021.1
20260906012121 75 348 0.0 4.0 0.00 0.00 0.00 52 1021.0
20260906011130 75 288 0.0 4.0 0.00 0.00 0.00 52 1020.9
20260906010132 75 83 1.0 4.0 0.00 0.00 0.00 49 1020.9
20260906005136 75 229 1.0 4.0 0.00 0.00 0.00 50 1020.9
20260906004140 76 224 0.0 4.0 0.00 0.00 0.00 50 1020.9
20260906003124 76 91 0.0 4.0 0.00 0.00 0.00 50 1020.8
20260906002131 76 90 1.0 4.0 0.00 0.00 0.00 49 1020.8
20260906001134 76 53 0.0 3.0 0.00 0.00 0.00 48 1020.9
20260906000137 77 128 1.0 2.0 0.00 0.00 0.00 48 1020.8
20260905235119 77 24 1.0 3.0 0.00 0.00 0.00 48 1020.8
20260905234147 77 161 1.0 3.0 0.00 0.00 0.00 48 1020.8
20260905233129 76 178 2.0 5.0 0.00 0.00 0.00 49 1020.8
20260905232133 76 236 1.0 3.0 0.00 0.00 0.00 51 1020.9
20260905231136 75 239 0.0 4.0 0.00 0.00 0.00 53 1020.9
20260905230125 74 240 3.0 7.0 0.00 0.00 0.00 55 1020.9
20260905225129 74 232 2.0 3.0 0.00 0.00 0.00 58 1021.0
20260905224151 76 232 1.0 2.0 0.00 0.00 0.00 55 1020.8
20260905223133 76 231 0.0 1.0 0.00 0.00 0.00 52 1020.6
20260905222120 77 231 0.0 3.0 0.00 0.00 0.00 52 1020.6
20260905221137 77 190 1.0 3.0 0.00 0.00 0.00 52 1020.4
20260905220119 78 188 0.0 3.0 0.00 0.00 0.00 51 1020.3
20260905215123 78 90 0.0 2.0 0.00 0.00 0.00 50 1020.4
20260905214126 78 81 1.0 3.0 0.00 0.00 0.00 50 1020.3
20260905213152 78 5 0.0 5.0 0.00 0.00 0.00 51 1020.3
20260905212132 78 160 0.0 2.0 0.00 0.00 0.00 51 1020.3
20260905211135 78 159 1.0 4.0 0.00 0.00 0.00 52 1020.2
20260905210136 78 260 1.0 4.0 0.00 0.00 0.00 53 1020.1
20260905205123 77 210 0.0 3.0 0.00 0.00 0.00 56 1020.1
20260905204123 77 202 2.0 8.0 0.00 0.00 0.00 57 1019.9
20260905203124 76 259 1.0 2.0 0.00 0.00 0.00 56 1019.8
20260905202126 76 262 0.0 1.0 0.00 0.00 0.00 60 1019.8
20260905201145 76 264 1.0 4.0 0.00 0.00 0.00 60 1019.8
20260905200125 76 196 0.0 1.0 0.00 0.00 0.00 61 1019.7
20260905195121 76 196 1.0 4.0 0.00 0.00 0.00 60 1019.6
20260905194137 76 221 1.0 3.0 0.00 0.00 0.00 62 1019.4
20260905193133 77 221 1.0 4.0 0.00 0.00 0.00 62 1019.3
20260905192133 78 355 0.0 3.0 0.00 0.00 0.00 58 1019.3
20260905191124 79 31 0.0 3.0 0.00 0.00 0.00 58 1019.2
20260905190134 79 230 0.0 4.0 0.00 0.00 0.00 60 1019.0
20260905185129 79 81 0.0 4.0 0.00 0.00 0.00 60 1018.8
20260905184147 78 234 1.0 3.0 0.00 0.00 0.00 61 1018.8
20260905183134 76 238 0.0 2.0 0.00 0.00 0.00 67 1018.6
20260905182135 77 238 1.0 3.0 0.00 0.00 0.00 70 1018.4
20260905181138 78 238 1.0 4.0 0.00 0.00 0.00 67 1018.3
20260905180121 78 238 1.0 3.0 0.00 0.00 0.00 68 1018.3
20260905175128 80 238 1.0 2.0 0.00 0.00 0.00 66 1018.2
20260905174129 81 238 1.0 3.0 0.00 0.00 0.00 62 1018.1
20260905173131 82 238 0.0 1.0 0.00 0.00 0.00 61 1018.0
20260905172131 82 238 0.0 1.0 0.00 0.00 0.00 59 1017.9
20260905171118 84 238 0.0 0.0 0.00 0.00 0.00 56 1017.8
20260905170121 85 238 0.0 0.0 0.00 0.00 0.00 59 1017.9
20260905165126 85 238 0.0 1.0 0.00 0.00 0.00 55 1017.8
20260905164147 86 238 0.0 1.0 0.00 0.00 0.00 54 1017.9
20260905163129 87 238 0.0 2.0 0.00 0.00 0.00 55 1017.8
20260905162137 87 238 0.0 2.0 0.00 0.00 0.00 50 1017.8
20260905161132 88 238 0.0 4.0 0.00 0.00 0.00 52 1017.8
20260905160145 88 237 0.0 4.0 0.00 0.00 0.00 51 1017.8
20260905155126 88 235 0.0 4.0 0.00 0.00 0.00 54 1017.7
20260905154124 89 221 2.0 3.0 0.00 0.00 0.00 50 1017.7
20260905153120 88 108 0.0 3.0 0.00 0.00 0.00 50 1017.7
20260905152135 88 105 1.0 3.0 0.00 0.00 0.00 49 1017.8
20260905151137 88 105 1.0 4.0 0.00 0.00 0.00 52 1017.8
20260905150120 88 105 0.0 2.0 0.00 0.00 0.00 50 1017.9
20260905145128 88 101 1.0 4.0 0.00 0.00 0.00 51 1017.9
20260905144133 87 117 1.0 4.0 0.00 0.00 0.00 50 1017.9
20260905143135 88 117 0.0 3.0 0.00 0.00 0.00 49 1018.0
20260905142156 88 119 1.0 4.0 0.00 0.00 0.00 50 1018.1
20260905141122 89 90 1.0 4.0 0.00 0.00 0.00 47 1018.0
20260905140122 89 91 1.0 2.0 0.00 0.00 0.00 47 1018.0
20260905135157 89 128 1.0 3.0 0.00 0.00 0.00 47 1018.1
20260905134137 90 178 1.0 3.0 0.00 0.00 0.00 45 1018.1
20260905133121 90 96 1.0 3.0 0.00 0.00 0.00 46 1018.3
20260905132128 90 94 0.0 3.0 0.00 0.00 0.00 47 1018.3
20260905131126 90 100 0.0 3.0 0.00 0.00 0.00 51 1018.3
20260905130130 89 81 0.0 4.0 0.00 0.00 0.00 52 1018.4
20260905125131 89 180 0.0 2.0 0.00 0.00 0.00 54 1018.5
20260905124138 88 118 1.0 4.0 0.00 0.00 0.00 53 1018.5
20260905123138 88 128 1.0 3.0 0.00 0.00 0.00 54 1018.5
20260905122137 88 129 0.0 3.0 0.00 0.00 0.00 51 1018.6
20260905121118 88 132 1.0 3.0 0.00 0.00 0.00 55 1018.6
20260905120123 88 131 2.0 5.0 0.00 0.00 0.00 54 1018.6
20260905115123 88 122 1.0 3.0 0.00 0.00 0.00 52 1018.7
20260905114127 87 96 0.0 4.0 0.00 0.00 0.00 57 1018.8
20260905113131 87 98 1.0 3.0 0.00 0.00 0.00 55 1018.8
20260905112134 88 98 1.0 3.0 0.00 0.00 0.00 55 1018.8
20260905111121 87 98 1.0 4.0 0.00 0.00 0.00 56 1018.8
20260905110123 86 95 0.0 2.0 0.00 0.00 0.00 54 1018.8
20260905105126 86 100 1.0 4.0 0.00 0.00 0.00 55 1018.9
20260905104130 85 74 0.0 5.0 0.00 0.00 0.00 59 1018.7
20260905103137 84 47 2.0 4.0 0.00 0.00 0.00 59 1018.9
20260905102118 84 47 2.0 4.0 0.00 0.00 0.00 59 1018.9
20260905101120 84 48 1.0 4.0 0.00 0.00 0.00 58 1018.9
20260905100124 83 48 2.0 4.0 0.00 0.00 0.00 58 1019.0
20260905095130 83 49 0.0 4.0 0.00 0.00 0.00 58 1019.0
20260905094128 83 48 1.0 2.0 0.00 0.00 0.00 57 1019.0
20260905093133 82 48 1.0 3.0 0.00 0.00 0.00 58 1019.0
20260905092136 82 48 1.0 3.0 0.00 0.00 0.00 62 1018.8
20260905091124 82 12 0.0 5.0 0.00 0.00 0.00 62 1018.8
20260905090148 81 13 1.0 3.0 0.00 0.00 0.00 60 1018.7
20260905085129 81 13 1.0 4.0 0.00 0.00 0.00 62 1018.7
20260905084133 79 360 1.0 4.0 0.00 0.00 0.00 62 1018.7
20260905083139 78 59 1.0 3.0 0.00 0.00 0.00 68 1018.7
20260905082121 76 319 0.0 4.0 0.00 0.00 0.00 68 1018.7
20260905081124 76 305 1.0 3.0 0.00 0.00 0.00 73 1018.6
20260905080128 75 305 0.0 2.0 0.00 0.00 0.00 74 1018.6
20260905075153 75 305 1.0 3.0 0.00 0.00 0.00 75 1018.6
20260905074118 75 305 0.0 2.0 0.00 0.00 0.00 73 1018.3
20260905073120 74 305 0.0 0.0 0.00 0.00 0.00 72 1018.3
20260905072123 73 305 0.0 0.0 0.00 0.00 0.00 75 1018.3
20260905071126 73 305 0.0 0.0 0.00 0.00 0.00 74 1018.3
20260905070134 72 305 0.0 1.0 0.00 0.00 0.00 77 1018.3
20260905065118 72 305 1.0 2.0 0.00 0.00 0.00 77 1018.3
20260905064142 72 306 0.0 1.0 0.00 0.00 0.00 74 1018.2
20260905063123 71 306 0.0 2.0 0.00 0.00 0.00 74 1018.2
20260905062148 71 305 0.0 0.0 0.00 0.00 0.00 77 1018.1
20260905061135 71 305 0.0 2.0 0.00 0.00 0.00 75 1018.1
20260905060137 71 305 0.0 2.0 0.00 0.00 0.00 74 1018.1
20260905055140 71 306 0.0 1.0 0.00 0.00 0.00 73 1017.9
20260905054122 71 306 0.0 1.0 0.00 0.00 0.00 73 1017.9
20260905053150 71 306 1.0 3.0 0.00 0.00 0.00 72 1017.8
20260905052131 72 311 1.0 3.0 0.00 0.00 0.00 71 1017.7
20260905051135 72 301 0.0 2.0 0.00 0.00 0.00 70 1017.5
20260905050118 72 59 1.0 4.0 0.00 0.00 0.00 69 1017.5
20260905045127 72 250 0.0 4.0 0.00 0.00 0.00 70 1017.3
20260905044133 72 120 1.0 5.0 0.00 0.00 0.00 70 1017.3
20260905043137 72 157 1.0 4.0 0.00 0.00 0.00 71 1017.3
20260905042151 72 329 1.0 3.0 0.00 0.00 0.00 69 1017.2